Tracking 19562 objects as of 22-Mar-2019
HD Live streaming from Space Station
objects crossing your sky now

COSMOS 1299

Track COSMOS 1299 now!
10-day predictions
COSMOS 1299 is classified as:


NORAD ID: 12783
Int'l Code: 1981-081A
Perigee: 928.2 km
Apogee: 975.8 km
Inclination: 65.1 °
Period: 103.9 minutes
Semi major axis: 7323 km
RCS: 2.89 m2 (large)
Launch date: August 24, 1981
Source: Commonwealth of Independent States (former USSR) (CIS)
Launch site: TYURATAM MISSILE AND SPACE COMPLEX (TTMTR)
aabbcc
Your satellite tracking list
Your tracking list is empty




NASA's NSSDC Master Catalog

Two Line Element Set (TLE):
1 12783U 81081A   19081.16546668 -.00000101  00000-0 -10983-4 0  9999
2 12783  65.1156  75.6011 0032488   9.3639 350.8022 13.85374898900973
Source of the keplerian elements: AFSPC